This is the latest recevied weather packets stored in our database for station/object OK3MS-5. If no packets are shown the sender has not sent any weather packets the latest 10 day(s).
| Time | Temp. | Humidity | Pressure | Rain* | Wind** | Luminosity | Snow |
|---|---|---|---|---|---|---|---|
| 1777362303 | 12.22° C | 42% | 1019.6 hPa | 0 mm | - | 348 W/m² | - |
| 1777362004 | 12.78° C | 42% | 1019.5 hPa | 0 mm | - | 304 W/m² | - |
| 1777361704 | 12.22° C | 43% | 1019.7 hPa | 0 mm | - | 344 W/m² | - |
| 1777361407 | 12.22° C | 47% | 1019.6 hPa | 0 mm | - | 347 W/m² | - |
| 1777361104 | 11.67° C | 47% | 1019.7 hPa | 0 mm | - | 343 W/m² | - |
| 1777360803 | 11.67° C | 48% | 1019.9 hPa | 0 mm | - | 285 W/m² | - |
| 1777360504 | 11.11° C | 51% | 1019.9 hPa | 0 mm | - | 246 W/m² | - |
| 1777360204 | 10.56° C | 50% | 1019.9 hPa | 0 mm | - | 237 W/m² | - |
| 1777359904 | 10.56° C | 51% | 1019.9 hPa | 0 mm | - | 264 W/m² | - |
| 1777359606 | 10° C | 50% | 1019.9 hPa | 0 mm | - | 249 W/m² | - |
| 1777359304 | 10° C | 53% | 1020 hPa | 0 mm | - | 251 W/m² | - |
| 1777359004 | 9.44° C | 53% | 1020.1 hPa | 0 mm | - | 266 W/m² | - |
| 1777358704 | 9.44° C | 53% | 1020.1 hPa | 0 mm | - | 248 W/m² | - |
| 1777358404 | 9.44° C | 54% | 1020.1 hPa | 0 mm | - | 202 W/m² | - |
| 1777358105 | 9.44° C | 53% | 1020.1 hPa | 0 mm | - | 219 W/m² | - |
| 1777357804 | 8.89° C | 54% | 1020.2 hPa | 0 mm | - | 195 W/m² | - |
| 1777357503 | 8.89° C | 55% | 1020.4 hPa | 0 mm | - | 186 W/m² | - |
| 1777357203 | 8.33° C | 55% | 1020.3 hPa | 0 mm | - | 169 W/m² | - |
| 1777356905 | 8.33° C | 56% | 1020.3 hPa | 0 mm | - | 126 W/m² | - |
| 1777356605 | 8.33° C | 56% | 1020.4 hPa | 0 mm | - | 124 W/m² | - |
| 1777356305 | 8.33° C | 55% | 1020.4 hPa | 0 mm | - | 122 W/m² | - |
| 1777356005 | 8.33° C | 53% | 1020.5 hPa | 0 mm | - | 120 W/m² | - |
| 1777355704 | 7.78° C | 56% | 1020.4 hPa | 0 mm | - | 116 W/m² | - |
| 1777355402 | 7.78° C | 56% | 1020.6 hPa | 0 mm | - | 111 W/m² | - |
| 1777355105 | 7.78° C | 55% | 1020.6 hPa | 0 mm | - | 110 W/m² | - |
* Rain latest hour (hover to see other rain measurements)
** Current wind speed in m/s (hover to see current wind gust speed)